Location: ShareBrained
(45.5589°N, 122.6491°W)
Time: 13:05:13
(UTC-08:00)

NOAA 19 - Pass Details

Date: 19 January 2020
Orbit: 840 x 862 km, 99.2° (Epoch: 24 February)

Event Time Altitude Azimuth Distance (km) Brightness Sun altitude
Rises 05:45:10 0° 18° (NNE) 3,410 8.5 -20.6°
Reaches altitude 10° 05:47:36 10° 23° (NNE) 2,469 7.8 -20.1°
Maximum altitude 05:52:58 56° 101° (ESE) 998 5.9 -19.2°
Drops below altitude 10° 05:58:18 10° 180° (S) 2,451 7.7 -18.3°
Sets 06:00:42 0° 184° (S) 3,382 8.4 -17.9°
